Buffalo, SD

2:57 AM MDT on September 25, 2017 (GMT -0600)
Buffalo

Weather History for K2WX - July, 2013

Change the Weather History Date:

Saturday, July 27, 2013

  Actual Average Record
Temperature  
Mean Temperature 62 °F 72 °F  
Max Temperature 77 °F 86 °F 99 °F (2006)
Min Temperature 46 °F 59 °F 46 °F (2013)
Degree Days  
Heating Degree Days 3 0  
Month to date heating degree days 10 21  
Since 1 June heating degree days 99 135  
Since 1 July heating degree days 10 21  
Cooling Degree Days 0 8  
Month to date cooling degree days 210 177  
Year to date cooling degree days 266 245  
Since 1 June cooling degree days 256 239  
Growing Degree Days 10 (Base 50)    
Moisture  
Dew Point 42 °F    
Average Humidity 55    
Maximum Humidity 77    
Minimum Humidity 33    
Precipitation  
Precipitation 0.00 in 0.06 in 0.26 in (2002)
Month to date precipitation 0.98 1.82  
Year to date precipitation 6.84 10.49  
Sea Level Pressure  
Sea Level Pressure 30.03 in    
Wind  
Wind Speed 15 mph (ESE)    
Max Wind Speed 24 mph    
Max Gust Speed 31 mph    
T = Trace of Precipitation, MM = Missing Value Source: NWS Daily Summary

Daily Weather History Graph

Daily Weather History Graph

Search for Another Location

Airport or City:

Trip Planner

Search our weather history database for the weather conditions in past years. The results will help you decide how hot, cold, wet, or windy it might be!

Date:

Astronomy

Jul. 27, 2013 Rise Set
Actual Time 5:32 AM MDT 8:28 PM MDT
Civil Twilight 4:57 AM MDT 9:02 PM MDT
Nautical Twilight 4:12 AM MDT 9:47 PM MDT
Astronomical Twilight 3:19 AM MDT 10:39 PM MDT
Moon 10:54 PM MDT (7/27) 11:36 AM MDT (7/27)
Length of Visible Light 16h 05m
Length of Day
14h 55m
Waning Gibbous, 70% of the Moon is Illuminated
Jul 27
Waning Gibbous
Jul 29
Last Quarter
Aug 6
New
Aug 14
First Quarter
Aug 20
Full

Hourly Weather History & Observations

Time (MDT) Temp. Dew Point Humidity Pressure Visibility Wind Dir Wind Speed Gust Speed Precip Events Conditions
12:56 AM 51.1 °F 41.0 °F 68% 30.18 in - East 11.5 mph - N/A   Unknown
1:56 AM 48.9 °F 41.0 °F 74% 30.17 in - East 9.2 mph - N/A   Unknown
2:56 AM 48.9 °F 39.9 °F 71% 30.16 in - East 10.4 mph - N/A   Unknown
3:56 AM 46.9 °F 39.9 °F 77% 30.15 in - East 9.2 mph - N/A   Unknown
4:56 AM 46.9 °F 39.9 °F 77% 30.14 in - East 9.2 mph - N/A   Unknown
5:56 AM 48.0 °F 39.9 °F 74% 30.14 in - East 9.2 mph - N/A   Unknown
6:56 AM 52.0 °F 42.1 °F 69% 30.12 in - East 9.2 mph - N/A   Unknown
7:56 AM 59.0 °F 42.1 °F 53% 30.12 in - SE 15.0 mph 20.7 mph N/A   Unknown
8:56 AM 63.0 °F 41.0 °F 45% 30.10 in - SE 19.6 mph 24.2 mph N/A   Unknown
9:56 AM 66.0 °F 41.0 °F 40% 30.08 in - SE 18.4 mph - N/A   Unknown
10:56 AM 68.0 °F 42.1 °F 39% 30.06 in - SE 20.7 mph 26.5 mph N/A   Unknown
11:56 AM 70.0 °F 42.1 °F 36% 30.04 in - SE 18.4 mph 27.6 mph N/A   Unknown
12:56 PM 72.0 °F 43.0 °F 35% 30.01 in - SE 19.6 mph 27.6 mph N/A   Unknown
1:56 PM 73.9 °F 43.0 °F 33% 30.00 in - SE 18.4 mph 27.6 mph N/A   Unknown
2:56 PM 75.9 °F 44.1 °F 32% 29.96 in - SSE 15.0 mph 29.9 mph N/A   Unknown
3:56 PM 75.0 °F 44.1 °F 33% 29.95 in - SE 23.0 mph 28.8 mph N/A   Unknown
4:56 PM 75.0 °F 45.0 °F 34% 29.95 in - SSE 19.6 mph 26.5 mph N/A   Unknown
5:56 PM 73.9 °F 44.1 °F 34% 29.94 in - SE 17.3 mph 25.3 mph N/A   Unknown
6:56 PM 73.0 °F 45.0 °F 37% 29.93 in - SE 15.0 mph - N/A   Unknown
7:56 PM 70.0 °F 45.0 °F 41% 29.91 in - SE 15.0 mph - N/A   Unknown
8:56 PM 64.9 °F 45.0 °F 48% 29.92 in - ESE 10.4 mph - N/A   Unknown
9:56 PM 62.1 °F 41.0 °F 46% 29.93 in - ESE 13.8 mph - N/A   Unknown
10:56 PM 60.1 °F 39.0 °F 46% 29.92 in - ESE 11.5 mph - N/A   Unknown
11:56 PM 59.0 °F 39.0 °F 48% 29.92 in - ESE 12.7 mph 20.7 mph N/A   Unknown